This demonstration page uses our WeatherBlox Daily Observations layout. Learn more.

Left ArrowRight Arrow

39.51506, -84.39828

Hourly Observations for April 1, 2015

Temp ( °F °C ) Dew Point ( °F °C ) Humidity (%) Winds ( mph kmh ) Pressure ( in mb ) Visibility ( mi km ) Precip ( " mm )
12:15 am 00:15 Clear 39 4 34 1 81 81 E 3 6 30.09 1019 10 16.0934 N/A
12:35 am 00:35 Clear 40 4.7 33 0.7 76 76 ESE 7 11 30.06 1018 10 16.0934 N/A
12:55 am 00:55 Clear 40 4.7 33 0.5 74 74 E 6 9 30.06 1018 10 16.0934 N/A
1:15 am 01:15 Clear 39 4 32 0.1 76 76 E 3 6 30.09 1019 10 16.0934 N/A
1:35 am 01:35 Clear 39 4 32 0.2 77 77 E 3 6 30.09 1019 10 16.0934 N/A
1:55 am 01:55 Clear 39 3.7 32 0.2 78 78 N N/A 30.12 1020 10 16.0934 N/A
2:15 am 02:15 Clear 39 4 33 0.5 78 78 N N/A 30.09 1019 10 16.0934 N/A
2:35 am 02:35 Clear 38 3.1 32 -0.1 80 80 N N/A 30.12 1020 10 16.0934 N/A
2:55 am 02:55 Clear 36 2.1 32 -0.2 85 85 N N/A 30.12 1020 10 16.0934 N/A
3:15 am 03:15 Clear 36 2.1 32 -0.2 85 85 N N/A 30.12 1020 10 16.0934 N/A
3:35 am 03:35 Clear 34 1.2 31 -0.7 87 87 N N/A 30.09 1019 7 11.26538 N/A
3:55 am 03:55 Clear 34 1.2 31 -0.5 89 89 N N/A 30.09 1019 7 11.26538 N/A
4:15 am 04:15 Clear 32 0.1 29 -1.8 87 87 N N/A 30.09 1019 7 11.26538 N/A
4:35 am 04:35 Clear 34 1.2 31 -0.5 89 89 N N/A 30.09 1019 7 11.26538 N/A
4:55 am 04:55 Clear with Mist and Fog 34 1.2 31 -0.5 89 89 N N/A 30.09 1019 5 8.0467 N/A
5:15 am 05:15 Clear with Mist and Fog 32 undefined 29 -1.8 88 88 N N/A 30.12 1020 5 8.0467 N/A
5:35 am 05:35 Clear 32 undefined 29 -1.8 88 88 N N/A 30.12 1020 7 11.26538 N/A
5:55 am 05:55 Clear N/A N/A N/A undefined N/A N/A 7 11.26538 N/A
6:15 am 06:15 Clear 31 -0.4 28 -2.2 88 88 N N/A 30.12 1020 7 11.26538 N/A
6:35 am 06:35 Clear 31 -0.5 28 -2.3 88 88 N N/A 30.12 1020 7 11.26538 N/A
6:55 am 06:55 Clear with Mist and Fog 32 undefined 29 -1.7 88 88 N N/A 30.12 1020 4 6.43736 N/A
7:15 am 07:15 Mostly Cloudy with Freezing Fog 31 -0.3 28 -2 88 88 N N/A 30.15 1021 0.5 0.80467 N/A
7:35 am 07:35 Sunny with Mist and Fog 30 -0.9 27 -2.6 88 88 N N/A 30.15 1021 2.5 4.02335 N/A
7:55 am 07:55 Sunny with Mist and Fog 32 undefined 29 -1.7 88 88 N N/A 30.15 1021 4 6.43736 N/A
8:15 am 08:15 Sunny with Mist and Fog 32 undefined 29 -1.6 89 89 N N/A 30.15 1021 5 8.0467 N/A
8:35 am 08:35 Sunny with Mist and Fog 34 1.2 32 -0.2 91 91 N N/A 30.18 1022 4 6.43736 N/A
8:55 am 08:55 Sunny with Mist and Fog 37 2.6 34 1 89 89 N N/A 30.18 1022 4 6.43736 N/A
9:15 am 09:15 Sunny 40 4.7 35 1.8 82 82 SW 6 9 30.15 1021 10 16.0934 N/A
9:35 am 09:35 Sunny 42 5.5 35 1.8 77 77 SW 8 13 30.15 1021 10 16.0934 N/A
9:55 am 09:55 Sunny 45 7.2 37 2.7 73 73 SW 8 13 30.15 1021 10 16.0934 N/A
10:55 am 10:55 Sunny 50 9.9 35 1.9 58 58 SW 7 11 30.18 1022 10 16.0934 N/A
11:15 am 11:15 Sunny 55 12.5 37 3 53 53 SW 7 11 30.18 1022 10 16.0934 N/A
11:35 am 11:35 Sunny 55 12.5 35 1.8 48 48 SW 6 9 30.18 1022 10 16.0934 N/A
11:55 am 11:55 Sunny 56 13.3 35 1.6 45 45 W 6 9 30.18 1022 10 16.0934 N/A
12:15 pm 12:15 Sunny 57 13.8 33 0.6 41 41 WSW 7 11 30.18 1022 10 16.0934 N/A
12:35 pm 12:35 Sunny 58 14.5 32 0.2 38 38 SW 6 9 30.18 1022 10 16.0934 N/A
12:55 pm 12:55 Sunny 60 15.3 33 0.3 36 36 WSW 5 7 30.18 1022 10 16.0934 N/A
1:15 pm 13:15 Sunny 60 15.4 31 -0.5 34 34 N N/A 30.15 1021 10 16.0934 N/A
1:35 pm 13:35 Sunny 61 16.1 30 -1.2 31 31 N N/A 30.15 1021 10 16.0934 N/A
1:55 pm 13:55 Sunny 62 16.7 28 -2.4 27 27 SE 3 6 30.12 1020 10 16.0934 N/A
2:15 pm 14:15 Sunny 63 17.3 28 -2.1 27 27 SSE 6 9 30.12 1020 10 16.0934 N/A
2:35 pm 14:35 Sunny 64 18 27 -2.6 25 25 ENE 7 11 30.09 1019 10 16.0934 N/A
2:55 pm 14:55 Sunny 66 18.7 26 -3.6 22 22 N N/A 30.09 1019 10 16.0934 N/A
3:15 pm 15:15 Sunny 64 18 24 -4.5 21 21 N N/A 30.09 1019 10 16.0934 N/A
3:35 pm 15:35 Sunny 67 19.5 26 -3.3 21 21 SSE 5 7 30.09 1019 10 16.0934 N/A
3:55 pm 15:55 Sunny 67 19.5 26 -3.5 21 21 S 5 7 30.09 1019 10 16.0934 N/A
4:15 pm 16:15 Sunny 69 20.5 26 -3.1 20 20 ESE 5 7 30.06 1018 10 16.0934 N/A
4:35 pm 16:35 Sunny 69 20.8 25 -3.8 19 19 SSE 6 9 30.06 1018 10 16.0934 N/A
4:55 pm 16:55 Sunny 69 20.8 25 -4 19 19 S 6 9 30.06 1018 10 16.0934 N/A
5:15 pm 17:15 Sunny 69 20.8 24 -4.6 18 18 SSE 9 15 30.06 1018 10 16.0934 N/A
5:35 pm 17:35 Sunny 69 20.8 23 -5 17 17 SSW 5 7 30.06 1018 10 16.0934 N/A
5:55 pm 17:55 Sunny 69 20.8 22 -5.5 17 17 SSE 3 6 30.06 1018 10 16.0934 N/A
6:15 pm 18:15 Sunny 69 20.8 24 -4.5 18 18 SSW 7 11 30.06 1018 10 16.0934 N/A
6:35 pm 18:35 Sunny 69 20.5 22 -5.3 17 17 S 7 11 30.06 1018 10 16.0934 N/A
6:55 pm 18:55 Sunny 67 19.6 21 -5.9 17 17 S 7 11 30.06 1018 10 16.0934 N/A
7:15 pm 19:15 Sunny 67 19.5 22 -5.5 18 18 SE 8 13 30.06 1018 10 16.0934 N/A
7:35 pm 19:35 Sunny 64 17.8 23 -5.2 21 21 SSE 7 11 30.06 1018 10 16.0934 N/A
7:55 pm 19:55 Sunny 63 17.1 22 -5.5 21 21 SE 8 13 30.06 1018 10 16.0934 N/A
8:15 pm 20:15 Clear 62 16.6 23 -5 22 22 SE 6 9 30.06 1018 10 16.0934 N/A
8:35 pm 20:35 Clear 61 16 22 -5.3 23 23 SSE 7 11 30.09 1019 10 16.0934 N/A
8:55 pm 20:55 Clear 61 16 23 -5.2 23 23 SSE 5 7 30.09 1019 10 16.0934 N/A
9:15 pm 21:15 Clear 60 15.3 23 -5 24 24 SSE 3 6 30.09 1019 10 16.0934 N/A
9:35 pm 21:35 Clear 60 15.3 24 -4.7 25 25 SSE 3 6 30.09 1019 10 16.0934 N/A
9:55 pm 21:55 Clear 58 14.4 25 -3.8 28 28 SSE 5 7 30.09 1019 10 16.0934 N/A
10:15 pm 22:15 Clear 49 9.6 35 1.7 58 58 N N/A 30.09 1019 10 16.0934 N/A
10:35 pm 22:35 Clear 49 9.6 38 3.1 64 64 N N/A 30.09 1019 10 16.0934 N/A
10:55 pm 22:55 Clear 48 8.8 37 2.5 65 65 N N/A 30.09 1019 10 16.0934 N/A
11:15 pm 23:15 Clear 47 8.2 34 1.2 62 62 N N/A 30.09 1019 10 16.0934 N/A
11:35 pm 23:35 Clear 44 6.9 35 1.6 69 69 N N/A 30.06 1018 10 16.0934 N/A

Powered by AerisWeather